[[{"header":{"parameterUnit":"m.s-1","parameterCategory":1,"la1":30.2991,"la2":30.254,"lo1":-89.0895,"lo2":-89.0444,"dy":0.0017,"dx":0.0017,"nx":28,"ny":28,"refTime":"2024-02-01T09:00:00:Z","depth":0,"parameterNumber":2,"parameterNumberName":"U-component_of_WINDS"},"data":[0,0,0,0,0,0,0,0,0,0,0,0,0,0,0,0,0,0,0,0,0,0,0,0,0,0,0,0,0,0,0,0,0,0,0,0,0,0,0,0,0,0,0,0,0,0,0,0,0,0,0,0,0,0,0,0,0,0,-1.8321,-1.8322,0,-1.8385,-1.8386,-1.8387,-1.8322,-1.8319,-1.8317,-1.8314,-1.8384,-1.8388,-1.8392,0,0,0,0,0,0,0,0,0,0,0,0,0,-1.8145,-1.8149,-1.8321,-1.8322,-1.8323,-1.8385,-1.8386,-1.8387,-1.8322,-1.8319,-1.8316,-1.8313,-1.8382,-1.8387,-1.8392,0,0,0,0,0,0,0,0,0,0,0,0,0,-1.8217,-1.815,-1.8321,-1.8298,-1.8296,-1.8385,-1.8386,-1.8387,-1.8323,-1.8319,-1.8315,-1.8312,-1.8381,-1.8387,-1.8393,-1.8509,0,0,-1.8413,-1.8415,0,0,0,0,0,0,0,0,-1.8213,-1.8224,-1.83,-1.83,-1.8298,-1.8342,-1.8349,-1.8428,-1.8324,-1.8313,-1.8314,-1.831,-1.8373,-1.838,-1.84,-1.8512,-1.8515,-1.8413,-1.8417,-1.842,-1.8421,0,0,0,0,0,0,0,-1.8208,-1.822,-1.8347,-1.8302,-1.83,-1.8285,-1.8291,-1.8364,-1.8364,-1.8314,-1.8309,-1.8317,-1.8372,-1.8394,-1.8402,-1.8516,-1.8413,-1.8419,-1.8422,-1.8425,-1.8726,-1.873,0,0,0,0,0,0,-1.8205,-1.8217,-1.8344,-1.8348,-1.8245,-1.8292,-1.8298,-1.8332,-1.8363,-1.8364,-1.8321,-1.8314,-1.8385,-1.8394,-1.8404,-1.8542,-1.842,-1.8426,-1.8429,-1.8722,-1.8727,-1.8731,0,0,0,0,0,0,-1.8202,-1.8217,-1.8342,-1.8281,-1.8296,-1.8299,-1.8337,-1.8335,-1.8357,-1.8368,-1.8368,-1.8344,-1.8383,-1.8395,-1.8483,-1.8543,-1.8428,-1.8434,-1.8717,-1.8723,-1.8729,-1.8818,0,0,0,0,0,0,-1.8197,-1.8216,-1.826,-1.8283,-1.8299,-1.842,-1.834,-1.8339,-1.8368,-1.836,-1.839,-1.8391,-1.8381,-1.8474,-1.8489,-1.855,-1.8439,-1.8711,-1.872,-1.8727,-1.881,-1.8827,-1.8841,0,0,0,0,0,-1.8191,-1.8283,-1.8262,-1.8278,-1.8354,-1.8423,-1.8433,-1.8418,-1.8373,-1.8417,-1.8424,-1.839,-1.8534,-1.8483,-1.85,-1.8564,-1.8708,-1.8717,-1.8726,-1.8803,-1.8824,-1.8841,0,0,0,0,0,0,-1.8269,-1.8286,-1.8263,-1.8365,-1.8393,-1.8412,-1.8467,-1.844,-1.8483,-1.8474,-1.8455,-1.8462,-1.8556,-1.8568,-1.8512,-1.8677,-1.8613,-1.8627,-1.8666,-1.8686,-1.8701,-1.8697,-1.8444,0,0,0,0,0,-1.8298,-1.8352,-1.8364,-1.8453,-1.8468,-1.8465,-1.8495,-1.8481,-1.851,-1.8522,-1.8535,-1.8565,-1.8617,-1.8651,-1.87,-1.8811,-1.8817,-1.8863,-1.8878,-1.8891,-1.8903,-1.8964,-1.8984,-1.8762,-1.8762,-1.8762,0,0,-1.8359,-1.8374,-1.841,-1.8469,-1.8489,-1.8546,-1.8476,-1.854,-1.8582,-1.8532,-1.8616,-1.8626,-1.8659,-1.8759,-1.8804,-1.8772,-1.8966,-1.8903,-1.8913,-1.8919,-1.8975,-1.8996,-1.9015,-1.8769,-1.8768,-1.8767,0,0,-1.8499,-1.8516,-1.8592,-1.8613,-1.8643,-1.8641,-1.8659,-1.8682,-1.8687,-1.877,-1.8734,-1.8784,-1.8874,-1.8898,-1.8923,-1.9071,-1.9041,-1.9087,-1.9169,-1.9228,-1.9246,-1.9261,-1.9315,-1.9335,-1.9099,-1.9099,-1.9099,0,-1.8571,-1.8655,-1.8635,-1.8701,-1.8729,-1.8683,-1.8761,-1.8783,-1.8828,-1.8849,-1.8812,-1.8923,-1.8942,-1.9047,-1.9083,-1.9104,-1.9125,-1.9084,-1.9244,-1.926,-1.9274,-1.9325,-1.9346,-1.9104,-1.9104,-1.9103,-1.9103,0,-1.8743,-1.8802,-1.886,-1.8903,-1.8937,-1.9009,-1.9,-1.9037,-1.9019,-1.9021,-1.9107,-1.9127,-1.9179,-1.9202,-1.9186,-1.9306,-1.9285,-1.9247,-1.9183,-1.9301,-1.9349,-1.9368,-1.9112,-1.911,-1.9108,-1.9107,0,0,-1.8937,-1.8966,-1.8988,-1.9007,-1.9037,-1.9083,-1.9152,-1.9201,-1.9234,-1.9266,-1.9325,-1.9401,-1.9365,-1.9393,-1.9379,-1.9431,-1.9548,-1.9386,-1.9386,-1.9416,-1.9681,-1.9711,-1.9734,-1.9527,-1.9531,-1.9534,-1.9679,0,-1.9079,-1.9198,-1.9182,-1.9298,-1.9352,-1.9309,-1.937,-1.9395,-1.9398,-1.9445,-1.9448,-1.9503,-1.9451,-1.9468,-1.9517,-1.9523,-1.9601,-1.9512,-1.9583,-1.9586,-1.9579,-1.9759,-1.9791,-1.9928,-1.9698,-1.9701,-1.9703,0,-1.9261,-1.9299,-1.942,-1.944,-1.9462,-1.9517,-1.9561,-1.9606,-1.9634,-1.9632,-1.9662,-1.9639,-1.971,-1.9642,-1.974,-1.968,-1.9708,-1.9715,-1.972,-1.9728,-1.9653,-1.9774,-1.9971,-1.9992,-1.9732,-1.973,-1.9728,0,-1.9392,-1.9473,-1.9555,-1.9573,-1.9599,-1.9638,-1.9651,-1.9675,-1.9705,-1.9743,-1.9763,-1.9809,-1.9835,-1.9872,-1.9862,-1.9814,-1.9962,-1.9894,-1.9964,-1.9965,-1.9999,-1.9998,-2.0205,-2.0014,-2.0014,-2.0014,-2.0013,0,-1.9553,-1.963,-1.9614,-1.9666,-1.975,-1.9729,-1.9814,-1.9821,-1.9842,-1.9895,-1.986,-1.9911,-1.9893,-1.9943,-1.9936,-2.0018,-2.003,-2.0031,-2.0029,-2.0036,-2.0036,-2.0055,-2.0046,-2.0019,-2.0018,-2.0017,-2.0016,0,-1.9715,-1.9708,-1.9795,-1.9812,-1.9818,-1.9879,-1.9894,-1.9942,-1.9941,-2.0008,-2.0023,-2.0022,-2.0079,-2.0072,-2.0135,-2.013,-2.0233,-2.0218,-2.0223,-2.0221,-2.0292,-2.0286,-2.0521,-2.0551,-2.0339,-2.0341,-2.0343,0,-1.982,-1.9877,-1.9899,-1.9931,-1.9946,-1.9999,-2.0029,-2.0011,-2.0044,-2.008,-2.0124,-2.0177,-2.0219,-2.0311,-2.0317,-2.0365,-2.0352,-2.0431,-2.0359,-2.0364,-2.0355,-2.0353,-2.0359,-2.0446,-2.0448,-2.045,-2.0452,0,-2.0007,-2.0,-2.0044,-2.0088,-2.0125,-2.0158,-2.0189,-2.0217,-2.0202,-2.0241,-2.0298,-2.033,-2.0393,-2.0447,-2.0492,-2.0506,-2.0478,-2.0474,-2.0493,-2.0502,-2.0503,-2.0504,-2.0264,-2.0469,-2.0468,-2.0466,-2.0465,-2.0465,-2.0144,-2.0193,-2.0216,-2.0267,-2.0287,-2.0316,-2.0362,-2.0366,-2.0413,-2.0463,-2.0449,-2.0513,-2.0539,-2.0596,-2.0615,-2.0666,-2.0637,-2.0664,-2.0671,-2.0679,-2.0688,-2.0493,-2.0674,-2.0673,-2.0673,-2.0672,-2.0672,0,-2.033,-2.0343,-2.0389,-2.0432,-2.0472,-2.0439,-2.047,-2.0507,-2.0563,-2.0589,-2.063,-2.0695,-2.0746,-2.0755,-2.0804,-2.0843,-2.0831,-2.0857,-2.0855,-2.0859,-2.071,-2.0689,-2.0866,-2.0865,-2.0865,-2.0865,-2.0865,-2.0865,-2.0432,-2.0514,-2.0509,-2.06,-2.0612,-2.0674,-2.0695,-2.0721,-2.0742,-2.0815,-2.0857,-2.0862,-2.0882,-2.0931,-2.0977,-2.0978,-2.0999,-2.103,-2.1027,-2.0888,-2.0869,-2.0851,-2.0831,-2.1034,-2.1034,-2.1171,-2.1172,-2.1173]},{"header":{"parameterUnit":"m.s-1","parameterCategory":1,"la1":30.2991,"la2":30.254,"lo1":-89.0895,"lo2":-89.0444,"dy":0.0017,"dx":0.0017,"nx":28,"ny":28,"refTime":"2024-02-01T09:00:00:Z","depth":0,"parameterNumber":3,"parameterNumberName":"V-component_of_WINDS"},"data":[0,0,0,0,0,0,0,0,0,0,0,0,0,0,0,0,0,0,0,0,0,0,0,0,0,0,0,0,0,0,0,0,0,0,0,0,0,0,0,0,0,0,0,0,0,0,0,0,0,0,0,0,0,0,0,0,0,0,-2.5983,-2.5983,0,-2.6043,-2.6044,-2.6044,-2.603,-2.6028,-2.6027,-2.6026,-2.6086,-2.6088,-2.6091,0,0,0,0,0,0,0,0,0,0,0,0,0,-2.5852,-2.5854,-2.5983,-2.5984,-2.5984,-2.6043,-2.6044,-2.6045,-2.603,-2.6028,-2.6027,-2.6026,-2.6085,-2.6088,-2.6091,0,0,0,0,0,0,0,0,0,0,0,0,0,-2.591,-2.5855,-2.5983,-2.5984,-2.5985,-2.6043,-2.6044,-2.6045,-2.603,-2.6028,-2.6026,-2.6025,-2.6084,-2.6088,-2.6091,-2.6151,0,0,-2.6104,-2.6105,0,0,0,0,0,0,0,0,-2.5907,-2.5915,-2.5983,-2.5984,-2.5985,-2.6027,-2.6019,-2.608,-2.603,-2.6013,-2.6026,-2.6024,-2.6067,-2.6073,-2.6088,-2.6154,-2.6157,-2.6104,-2.6106,-2.6108,-2.6109,0,0,0,0,0,0,0,-2.5903,-2.5912,-2.6007,-2.5984,-2.5985,-2.5981,-2.5987,-2.6031,-2.6049,-2.6014,-2.6013,-2.6021,-2.6067,-2.6084,-2.6089,-2.6157,-2.6104,-2.6108,-2.611,-2.6112,-2.6274,-2.6276,0,0,0,0,0,0,-2.5898,-2.5909,-2.6005,-2.6008,-2.5941,-2.5984,-2.5991,-2.6015,-2.6049,-2.6052,-2.6022,-2.602,-2.6078,-2.6084,-2.6091,-2.6162,-2.6108,-2.6112,-2.6114,-2.6273,-2.6275,-2.6277,0,0,0,0,0,0,-2.5896,-2.5907,-2.6002,-2.5958,-2.597,-2.5989,-2.6015,-2.6017,-2.6034,-2.6055,-2.6057,-2.6036,-2.6077,-2.6085,-2.6136,-2.6164,-2.6114,-2.6117,-2.627,-2.6273,-2.6276,-2.6306,0,0,0,0,0,0,-2.5892,-2.5906,-2.593,-2.5959,-2.5973,-2.6047,-2.6017,-2.602,-2.6041,-2.6038,-2.6068,-2.6071,-2.6076,-2.613,-2.614,-2.6169,-2.6121,-2.6268,-2.6272,-2.6275,-2.6303,-2.631,-2.6316,0,0,0,0,0,-2.5887,-2.5936,-2.5931,-2.5943,-2.6003,-2.6049,-2.6057,-2.6062,-2.6043,-2.6067,-2.608,-2.607,-2.616,-2.6136,-2.6147,-2.6177,-2.6266,-2.6271,-2.6275,-2.63,-2.6308,-2.6315,0,0,0,0,0,0,-2.5909,-2.594,-2.5935,-2.5994,-2.6019,-2.6047,-2.6076,-2.6071,-2.6101,-2.6097,-2.6102,-2.6108,-2.616,-2.6174,-2.6146,-2.6236,-2.621,-2.6217,-2.6225,-2.6233,-2.624,-2.6235,-2.6124,0,0,0,0,0,-2.592,-2.5956,-2.5981,-2.6031,-2.6044,-2.6058,-2.6078,-2.608,-2.6106,-2.6116,-2.6133,-2.6158,-2.6191,-2.6213,-2.6245,-2.6304,-2.631,-2.6331,-2.6337,-2.6342,-2.6348,-2.6379,-2.6388,-2.6291,-2.6291,-2.6291,0,0,-2.5945,-2.5966,-2.5988,-2.6036,-2.6055,-2.6091,-2.6067,-2.6106,-2.6133,-2.6122,-2.6171,-2.6184,-2.6212,-2.6267,-2.6292,-2.628,-2.6376,-2.6348,-2.6352,-2.6355,-2.6384,-2.6394,-2.6402,-2.6294,-2.6294,-2.6293,0,0,-2.6007,-2.6028,-2.6071,-2.6091,-2.6121,-2.613,-2.614,-2.6169,-2.6177,-2.6227,-2.6219,-2.625,-2.6308,-2.6328,-2.6345,-2.6415,-2.6406,-2.6425,-2.6458,-2.6489,-2.6496,-2.6503,-2.6527,-2.6536,-2.643,-2.643,-2.6431,0,-2.6033,-2.6088,-2.6094,-2.6134,-2.6154,-2.6147,-2.619,-2.6209,-2.6248,-2.6262,-2.6247,-2.6319,-2.6337,-2.6397,-2.6413,-2.6428,-2.6439,-2.6421,-2.6495,-2.6502,-2.6508,-2.6531,-2.654,-2.6432,-2.6432,-2.6432,-2.6432,0,-2.6119,-2.6157,-2.6188,-2.6226,-2.625,-2.6292,-2.6302,-2.6326,-2.6325,-2.6336,-2.6385,-2.6407,-2.6443,-2.6457,-2.6457,-2.6516,-2.6507,-2.6494,-2.6468,-2.6519,-2.6541,-2.655,-2.6435,-2.6435,-2.6434,-2.6433,0,0,-2.6197,-2.6237,-2.6248,-2.6265,-2.6297,-2.6326,-2.6367,-2.6402,-2.6422,-2.6449,-2.6482,-2.6531,-2.6519,-2.6539,-2.6541,-2.6568,-2.662,-2.6551,-2.6552,-2.6562,-2.6685,-2.6694,-2.6704,-2.6615,-2.6617,-2.6618,-2.6683,0,-2.6262,-2.6334,-2.634,-2.6404,-2.6439,-2.6432,-2.6467,-2.649,-2.65,-2.653,-2.6541,-2.6576,-2.6558,-2.6569,-2.6596,-2.6608,-2.6645,-2.6604,-2.6645,-2.6646,-2.6638,-2.6716,-2.6726,-2.6786,-2.6691,-2.6693,-2.6694,0,-2.6347,-2.6377,-2.6445,-2.6472,-2.6487,-2.6518,-2.6551,-2.658,-2.6606,-2.6611,-2.6633,-2.6631,-2.6671,-2.6644,-2.67,-2.6672,-2.6689,-2.6697,-2.67,-2.6703,-2.6673,-2.6721,-2.6805,-2.6814,-2.6707,-2.6706,-2.6705,0,-2.6396,-2.6453,-2.6501,-2.6516,-2.6548,-2.6571,-2.6585,-2.6609,-2.663,-2.6658,-2.6671,-2.6703,-2.6721,-2.6745,-2.6751,-2.6731,-2.6806,-2.678,-2.6811,-2.6811,-2.6827,-2.6826,-2.6914,-2.6839,-2.6839,-2.6839,-2.6838,0,-2.6468,-2.651,-2.6524,-2.6553,-2.66,-2.6605,-2.665,-2.6663,-2.6684,-2.6715,-2.6711,-2.674,-2.6747,-2.6777,-2.6782,-2.6826,-2.6834,-2.6839,-2.684,-2.6839,-2.6838,-2.685,-2.6846,-2.6841,-2.684,-2.684,-2.684,0,-2.653,-2.6541,-2.6593,-2.662,-2.6627,-2.666,-2.6682,-2.671,-2.672,-2.6759,-2.6768,-2.6783,-2.6818,-2.6827,-2.6869,-2.6872,-2.6924,-2.6921,-2.6916,-2.6915,-2.6945,-2.6942,-2.7044,-2.7058,-2.6974,-2.6975,-2.6976,0,-2.6575,-2.6607,-2.6637,-2.6658,-2.6673,-2.6707,-2.6728,-2.6734,-2.6756,-2.6787,-2.6811,-2.6846,-2.6874,-2.693,-2.6943,-2.6975,-2.6972,-2.7006,-2.6977,-2.6975,-2.6972,-2.697,-2.6972,-2.7011,-2.7012,-2.7013,-2.7013,0,-2.6653,-2.6657,-2.6688,-2.6721,-2.6746,-2.6772,-2.6797,-2.6814,-2.6824,-2.6848,-2.6885,-2.6906,-2.6949,-2.6983,-2.7014,-2.7028,-2.7022,-2.7023,-2.7031,-2.7031,-2.7026,-2.7028,-2.693,-2.702,-2.7019,-2.7019,-2.7019,-2.7018,-2.6708,-2.6735,-2.6761,-2.6795,-2.6815,-2.6838,-2.6865,-2.6878,-2.6908,-2.6944,-2.6945,-2.6984,-2.7008,-2.705,-2.7065,-2.7095,-2.7085,-2.7097,-2.7101,-2.7103,-2.7106,-2.7022,-2.7101,-2.7101,-2.71,-2.71,-2.71,0,-2.6785,-2.68,-2.6832,-2.6867,-2.6894,-2.6887,-2.6914,-2.6936,-2.6971,-2.6994,-2.7021,-2.7062,-2.7095,-2.7111,-2.7143,-2.7164,-2.7162,-2.7172,-2.717,-2.7173,-2.7114,-2.7102,-2.7173,-2.7173,-2.7173,-2.7173,-2.7173,-2.7173,-2.6828,-2.6874,-2.6881,-2.6936,-2.6952,-2.699,-2.7006,-2.7027,-2.7045,-2.7091,-2.7119,-2.7129,-2.7149,-2.7182,-2.7212,-2.7216,-2.7227,-2.7239,-2.7241,-2.7185,-2.7177,-2.717,-2.716,-2.7241,-2.7241,-2.7298,-2.7298,-2.7299]}]]